<?xml version="1.0" encoding="UTF-8"?>
<gpx version="1.0" creator="http://thydzik.com" xmlns:xsi="http://www.w3.org/2001/XMLSchema-instance" xmlns="http://www.topografix.com/GPX/1/0" xsi:schemaLocation="http://www.topografix.com/GPX/1/0 http://www.topografix.com/GPX/1/0/gpx.xsd">
  <url></url>
  <time>2024-03-12T04:14:10Z</time>
  <trk>
    <name></name>
    <trkseg>
      <trkpt lat="40.7254167836531" lon="-3.88530853513037">
        <time>2024-03-12T04:14:10Z</time>
      </trkpt>
      <trkpt lat="40.725356073923" lon="-3.88534370561555">
        <time>2024-03-12T04:14:10Z</time>
      </trkpt>
      <trkpt lat="40.7252846455399" lon="-3.88573548585084">
        <time>2024-03-12T04:14:10Z</time>
      </trkpt>
      <trkpt lat="40.7252595971572" lon="-3.88602745033375">
        <time>2024-03-12T04:14:10Z</time>
      </trkpt>
      <trkpt lat="40.7252456053604" lon="-3.88636452997935">
        <time>2024-03-12T04:14:10Z</time>
      </trkpt>
      <trkpt lat="40.7252729843406" lon="-3.88666018779103">
        <time>2024-03-12T04:14:10Z</time>
      </trkpt>
      <trkpt lat="40.7252861956367" lon="-3.88687021717032">
        <time>2024-03-12T04:14:10Z</time>
      </trkpt>
      <trkpt lat="40.725168055619" lon="-3.88770056867706">
        <time>2024-03-12T04:14:10Z</time>
      </trkpt>
      <trkpt lat="40.7251712332748" lon="-3.8878804854712">
        <time>2024-03-12T04:14:10Z</time>
      </trkpt>
      <trkpt lat="40.7252237689719" lon="-3.88794879617783">
        <time>2024-03-12T04:14:10Z</time>
      </trkpt>
      <trkpt lat="40.7252726674344" lon="-3.88812996715857">
        <time>2024-03-12T04:14:10Z</time>
      </trkpt>
      <trkpt lat="40.7253304256885" lon="-3.88829091579635">
        <time>2024-03-12T04:14:10Z</time>
      </trkpt>
      <trkpt lat="40.725379881312" lon="-3.88839963193846">
        <time>2024-03-12T04:14:10Z</time>
      </trkpt>
      <trkpt lat="40.7254561503509" lon="-3.88854302937876">
        <time>2024-03-12T04:14:10Z</time>
      </trkpt>
      <trkpt lat="40.7255392767208" lon="-3.88867507684879">
        <time>2024-03-12T04:14:10Z</time>
      </trkpt>
      <trkpt lat="40.7256022904105" lon="-3.88878143143386">
        <time>2024-03-12T04:14:10Z</time>
      </trkpt>
      <trkpt lat="40.7256810783365" lon="-3.88897444333165">
        <time>2024-03-12T04:14:10Z</time>
      </trkpt>
      <trkpt lat="40.7258312913749" lon="-3.88918620435686">
        <time>2024-03-12T04:14:10Z</time>
      </trkpt>
      <trkpt lat="40.725911633332" lon="-3.88930296086231">
        <time>2024-03-12T04:14:10Z</time>
      </trkpt>
      <trkpt lat="40.7259881656934" lon="-3.88941203919812">
        <time>2024-03-12T04:14:10Z</time>
      </trkpt>
      <trkpt lat="40.7260202648189" lon="-3.88938831206785">
        <time>2024-03-12T04:14:10Z</time>
      </trkpt>
      <trkpt lat="40.7260443727843" lon="-3.88939753205627">
        <time>2024-03-12T04:14:10Z</time>
      </trkpt>
      <trkpt lat="40.726078883335" lon="-3.88943740151473">
        <time>2024-03-12T04:14:10Z</time>
      </trkpt>
      <trkpt lat="40.7261696471673" lon="-3.88958226596029">
        <time>2024-03-12T04:14:10Z</time>
      </trkpt>
      <trkpt lat="40.7263325484333" lon="-3.88977894337944">
        <time>2024-03-12T04:14:10Z</time>
      </trkpt>
      <trkpt lat="40.7264197473989" lon="-3.88988435115624">
        <time>2024-03-12T04:14:10Z</time>
      </trkpt>
      <trkpt lat="40.7264887975392" lon="-3.88996027756422">
        <time>2024-03-12T04:14:10Z</time>
      </trkpt>
      <trkpt lat="40.7265351282537" lon="-3.88997233648552">
        <time>2024-03-12T04:14:10Z</time>
      </trkpt>
      <trkpt lat="40.7265956610248" lon="-3.8900239949346">
        <time>2024-03-12T04:14:10Z</time>
      </trkpt>
      <trkpt lat="40.7267686046606" lon="-3.89017249900291">
        <time>2024-03-12T04:14:10Z</time>
      </trkpt>
      <trkpt lat="40.7269492120685" lon="-3.89031190008354">
        <time>2024-03-12T04:14:10Z</time>
      </trkpt>
      <trkpt lat="40.727120224674" lon="-3.89044798793194">
        <time>2024-03-12T04:14:10Z</time>
      </trkpt>
      <trkpt lat="40.727153382446" lon="-3.89048217813069">
        <time>2024-03-12T04:14:10Z</time>
      </trkpt>
      <trkpt lat="40.7272542877743" lon="-3.89058595217321">
        <time>2024-03-12T04:14:10Z</time>
      </trkpt>
      <trkpt lat="40.7273756669965" lon="-3.89073322105695">
        <time>2024-03-12T04:14:10Z</time>
      </trkpt>
      <trkpt lat="40.7276690184655" lon="-3.89112553614878">
        <time>2024-03-12T04:14:10Z</time>
      </trkpt>
      <trkpt lat="40.7276955186503" lon="-3.89115857240975">
        <time>2024-03-12T04:14:10Z</time>
      </trkpt>
      <trkpt lat="40.7277734160679" lon="-3.89125529164396">
        <time>2024-03-12T04:14:10Z</time>
      </trkpt>
      <trkpt lat="40.7278800471233" lon="-3.89138744567194">
        <time>2024-03-12T04:14:10Z</time>
      </trkpt>
      <trkpt lat="40.7279304625653" lon="-3.89144993165823">
        <time>2024-03-12T04:14:10Z</time>
      </trkpt>
      <trkpt lat="40.728042069504" lon="-3.89157931073367">
        <time>2024-03-12T04:14:10Z</time>
      </trkpt>
      <trkpt lat="40.7281807538911" lon="-3.89170194671281">
        <time>2024-03-12T04:14:10Z</time>
      </trkpt>
      <trkpt lat="40.7282148673444" lon="-3.89174065067545">
        <time>2024-03-12T04:14:10Z</time>
      </trkpt>
      <trkpt lat="40.7282209403498" lon="-3.89174748149798">
        <time>2024-03-12T04:14:10Z</time>
      </trkpt>
      <trkpt lat="40.7282554294911" lon="-3.89183083362539">
        <time>2024-03-12T04:14:10Z</time>
      </trkpt>
      <trkpt lat="40.7284173450884" lon="-3.8920946969661">
        <time>2024-03-12T04:14:10Z</time>
      </trkpt>
      <trkpt lat="40.7284884172095" lon="-3.89222353664512">
        <time>2024-03-12T04:14:10Z</time>
      </trkpt>
      <trkpt lat="40.7285265822568" lon="-3.89229746508159">
        <time>2024-03-12T04:14:10Z</time>
      </trkpt>
      <trkpt lat="40.7285469783764" lon="-3.89233204428055">
        <time>2024-03-12T04:14:10Z</time>
      </trkpt>
      <trkpt lat="40.7285925883303" lon="-3.89238242309938">
        <time>2024-03-12T04:14:10Z</time>
      </trkpt>
      <trkpt lat="40.7286000124318" lon="-3.8923892720695">
        <time>2024-03-12T04:14:10Z</time>
      </trkpt>
      <trkpt lat="40.7286149516246" lon="-3.89240285281261">
        <time>2024-03-12T04:14:10Z</time>
      </trkpt>
      <trkpt lat="40.7286485395247" lon="-3.89248619373012">
        <time>2024-03-12T04:14:10Z</time>
      </trkpt>
      <trkpt lat="40.7288487066373" lon="-3.89269609928909">
        <time>2024-03-12T04:14:10Z</time>
      </trkpt>
      <trkpt lat="40.7289287398383" lon="-3.89283098111748">
        <time>2024-03-12T04:14:10Z</time>
      </trkpt>
      <trkpt lat="40.7289516832191" lon="-3.89289286512053">
        <time>2024-03-12T04:14:10Z</time>
      </trkpt>
      <trkpt lat="40.7289872831456" lon="-3.89310033567725">
        <time>2024-03-12T04:14:10Z</time>
      </trkpt>
      <trkpt lat="40.7290430585943" lon="-3.89342459968954">
        <time>2024-03-12T04:14:10Z</time>
      </trkpt>
      <trkpt lat="40.7291006293826" lon="-3.89366812704528">
        <time>2024-03-12T04:14:10Z</time>
      </trkpt>
      <trkpt lat="40.729138504448" lon="-3.89376774987236">
        <time>2024-03-12T04:14:10Z</time>
      </trkpt>
      <trkpt lat="40.7291677299058" lon="-3.89384428390797">
        <time>2024-03-12T04:14:10Z</time>
      </trkpt>
      <trkpt lat="40.7292298016364" lon="-3.89397182225944">
        <time>2024-03-12T04:14:10Z</time>
      </trkpt>
      <trkpt lat="40.7292912017698" lon="-3.89406974722302">
        <time>2024-03-12T04:14:10Z</time>
      </trkpt>
      <trkpt lat="40.7294136806819" lon="-3.89430703995551">
        <time>2024-03-12T04:14:10Z</time>
      </trkpt>
      <trkpt lat="40.7294675533245" lon="-3.89444631130253">
        <time>2024-03-12T04:14:10Z</time>
      </trkpt>
      <trkpt lat="40.7294929686783" lon="-3.89453783418781">
        <time>2024-03-12T04:14:10Z</time>
      </trkpt>
      <trkpt lat="40.7295131132887" lon="-3.89468174613568">
        <time>2024-03-12T04:14:10Z</time>
      </trkpt>
      <trkpt lat="40.7295143128526" lon="-3.89468969627179">
        <time>2024-03-12T04:14:10Z</time>
      </trkpt>
      <trkpt lat="40.7295431015497" lon="-3.89481086924861">
        <time>2024-03-12T04:14:10Z</time>
      </trkpt>
      <trkpt lat="40.7296904923644" lon="-3.89528670206754">
        <time>2024-03-12T04:14:10Z</time>
      </trkpt>
      <trkpt lat="40.7298281812778" lon="-3.8956152874424">
        <time>2024-03-12T04:14:10Z</time>
      </trkpt>
      <trkpt lat="40.7299192552213" lon="-3.89567563504592">
        <time>2024-03-12T04:14:10Z</time>
      </trkpt>
      <trkpt lat="40.7300260767018" lon="-3.89572455382496">
        <time>2024-03-12T04:14:10Z</time>
      </trkpt>
      <trkpt lat="40.7300341568564" lon="-3.89572809635767">
        <time>2024-03-12T04:14:10Z</time>
      </trkpt>
      <trkpt lat="40.7300796168816" lon="-3.89574325271911">
        <time>2024-03-12T04:14:10Z</time>
      </trkpt>
      <trkpt lat="40.7301181216506" lon="-3.89576665369247">
        <time>2024-03-12T04:14:10Z</time>
      </trkpt>
      <trkpt lat="40.7301579833144" lon="-3.89579133535212">
        <time>2024-03-12T04:14:10Z</time>
      </trkpt>
      <trkpt lat="40.7302044642067" lon="-3.89583814258302">
        <time>2024-03-12T04:14:10Z</time>
      </trkpt>
      <trkpt lat="40.7303189613482" lon="-3.89594270393835">
        <time>2024-03-12T04:14:10Z</time>
      </trkpt>
      <trkpt lat="40.73032083731" lon="-3.89594474224798">
        <time>2024-03-12T04:14:10Z</time>
      </trkpt>
      <trkpt lat="40.7304745070581" lon="-3.89609755299933">
        <time>2024-03-12T04:14:10Z</time>
      </trkpt>
      <trkpt lat="40.7305317876941" lon="-3.89614568977384">
        <time>2024-03-12T04:14:10Z</time>
      </trkpt>
      <trkpt lat="40.7305434239698" lon="-3.89615531955579">
        <time>2024-03-12T04:14:10Z</time>
      </trkpt>
      <trkpt lat="40.7306142710796" lon="-3.89619653320879">
        <time>2024-03-12T04:14:10Z</time>
      </trkpt>
      <trkpt lat="40.7306805224493" lon="-3.8962495273833">
        <time>2024-03-12T04:14:10Z</time>
      </trkpt>
      <trkpt lat="40.7307233633414" lon="-3.89630102330229">
        <time>2024-03-12T04:14:10Z</time>
      </trkpt>
      <trkpt lat="40.7307606157602" lon="-3.89637612851778">
        <time>2024-03-12T04:14:10Z</time>
      </trkpt>
      <trkpt lat="40.7308105062972" lon="-3.89644785080312">
        <time>2024-03-12T04:14:10Z</time>
      </trkpt>
      <trkpt lat="40.7308923340615" lon="-3.89652509399476">
        <time>2024-03-12T04:14:10Z</time>
      </trkpt>
      <trkpt lat="40.7309366023018" lon="-3.89656678043553">
        <time>2024-03-12T04:14:10Z</time>
      </trkpt>
      <trkpt lat="40.7310395361043" lon="-3.89665224150862">
        <time>2024-03-12T04:14:10Z</time>
      </trkpt>
      <trkpt lat="40.7310997947338" lon="-3.89666489263359">
        <time>2024-03-12T04:14:10Z</time>
      </trkpt>
      <trkpt lat="40.731161110499" lon="-3.8966574262607">
        <time>2024-03-12T04:14:10Z</time>
      </trkpt>
      <trkpt lat="40.7311836937777" lon="-3.89664943990415">
        <time>2024-03-12T04:14:10Z</time>
      </trkpt>
      <trkpt lat="40.7312441214776" lon="-3.89660942854822">
        <time>2024-03-12T04:14:10Z</time>
      </trkpt>
      <trkpt lat="40.7312963031303" lon="-3.89661521459701">
        <time>2024-03-12T04:14:10Z</time>
      </trkpt>
      <trkpt lat="40.7313192360116" lon="-3.89665112136176">
        <time>2024-03-12T04:14:10Z</time>
      </trkpt>
      <trkpt lat="40.7313303567745" lon="-3.89671356875618">
        <time>2024-03-12T04:14:10Z</time>
      </trkpt>
      <trkpt lat="40.7313393162048" lon="-3.89680522912138">
        <time>2024-03-12T04:14:10Z</time>
      </trkpt>
      <trkpt lat="40.7313451175375" lon="-3.8969299032447">
        <time>2024-03-12T04:14:10Z</time>
      </trkpt>
      <trkpt lat="40.731339175709" lon="-3.89707221912845">
        <time>2024-03-12T04:14:10Z</time>
      </trkpt>
      <trkpt lat="40.7313449531945" lon="-3.89715857007872">
        <time>2024-03-12T04:14:10Z</time>
      </trkpt>
      <trkpt lat="40.7313181919979" lon="-3.89730709090427">
        <time>2024-03-12T04:14:10Z</time>
      </trkpt>
      <trkpt lat="40.7313509415009" lon="-3.89764294630612">
        <time>2024-03-12T04:14:10Z</time>
      </trkpt>
      <trkpt lat="40.7314370427733" lon="-3.89763890592068">
        <time>2024-03-12T04:14:10Z</time>
      </trkpt>
      <trkpt lat="40.7314497427627" lon="-3.89768885188684">
        <time>2024-03-12T04:14:10Z</time>
      </trkpt>
      <trkpt lat="40.7314519229341" lon="-3.89771072774545">
        <time>2024-03-12T04:14:10Z</time>
      </trkpt>
      <trkpt lat="40.7314545059146" lon="-3.89773664011678">
        <time>2024-03-12T04:14:10Z</time>
      </trkpt>
      <trkpt lat="40.7314773545059" lon="-3.89781036911526">
        <time>2024-03-12T04:14:10Z</time>
      </trkpt>
      <trkpt lat="40.7315199920275" lon="-3.89788791686706">
        <time>2024-03-12T04:14:10Z</time>
      </trkpt>
      <trkpt lat="40.7315638526758" lon="-3.89792403326866">
        <time>2024-03-12T04:14:10Z</time>
      </trkpt>
      <trkpt lat="40.7316674026638" lon="-3.89793016230034">
        <time>2024-03-12T04:14:10Z</time>
      </trkpt>
      <trkpt lat="40.7317496456844" lon="-3.89801179554404">
        <time>2024-03-12T04:14:10Z</time>
      </trkpt>
      <trkpt lat="40.7318284334865" lon="-3.89808319587055">
        <time>2024-03-12T04:14:10Z</time>
      </trkpt>
      <trkpt lat="40.7319559442154" lon="-3.89822730742566">
        <time>2024-03-12T04:14:10Z</time>
      </trkpt>
      <trkpt lat="40.7319990660711" lon="-3.89827874345585">
        <time>2024-03-12T04:14:10Z</time>
      </trkpt>
      <trkpt lat="40.7320424352627" lon="-3.89829839779744">
        <time>2024-03-12T04:14:10Z</time>
      </trkpt>
      <trkpt lat="40.7321358243018" lon="-3.8983530528734">
        <time>2024-03-12T04:14:10Z</time>
      </trkpt>
      <trkpt lat="40.7322553337675" lon="-3.89840678805601">
        <time>2024-03-12T04:14:10Z</time>
      </trkpt>
      <trkpt lat="40.7323867709552" lon="-3.89844173259075">
        <time>2024-03-12T04:14:10Z</time>
      </trkpt>
      <trkpt lat="40.7325416706472" lon="-3.89846630311369">
        <time>2024-03-12T04:14:10Z</time>
      </trkpt>
      <trkpt lat="40.7327336185812" lon="-3.89841941422157">
        <time>2024-03-12T04:14:10Z</time>
      </trkpt>
      <trkpt lat="40.7328995156317" lon="-3.89834968773849">
        <time>2024-03-12T04:14:10Z</time>
      </trkpt>
      <trkpt lat="40.7329841861903" lon="-3.89831334840245">
        <time>2024-03-12T04:14:10Z</time>
      </trkpt>
      <trkpt lat="40.7330782237651" lon="-3.89824565319849">
        <time>2024-03-12T04:14:10Z</time>
      </trkpt>
      <trkpt lat="40.7331779317882" lon="-3.89816745652708">
        <time>2024-03-12T04:14:10Z</time>
      </trkpt>
      <trkpt lat="40.7333026054885" lon="-3.89805470473058">
        <time>2024-03-12T04:14:10Z</time>
      </trkpt>
      <trkpt lat="40.733431552813" lon="-3.89788988135597">
        <time>2024-03-12T04:14:10Z</time>
      </trkpt>
      <trkpt lat="40.7337002096729" lon="-3.89759739294474">
        <time>2024-03-12T04:14:10Z</time>
      </trkpt>
      <trkpt lat="40.7339054681356" lon="-3.89739149169251">
        <time>2024-03-12T04:14:10Z</time>
      </trkpt>
      <trkpt lat="40.734061668534" lon="-3.89732874704499">
        <time>2024-03-12T04:14:10Z</time>
      </trkpt>
      <trkpt lat="40.7342601525355" lon="-3.8973373567973">
        <time>2024-03-12T04:14:10Z</time>
      </trkpt>
      <trkpt lat="40.7343799400372" lon="-3.89734062430367">
        <time>2024-03-12T04:14:10Z</time>
      </trkpt>
      <trkpt lat="40.7347103037469" lon="-3.89734932669583">
        <time>2024-03-12T04:14:10Z</time>
      </trkpt>
      <trkpt lat="40.7349065571226" lon="-3.89732576565471">
        <time>2024-03-12T04:14:10Z</time>
      </trkpt>
      <trkpt lat="40.7350160556209" lon="-3.89735428529045">
        <time>2024-03-12T04:14:10Z</time>
      </trkpt>
      <trkpt lat="40.7350700724625" lon="-3.89737281157163">
        <time>2024-03-12T04:14:10Z</time>
      </trkpt>
      <trkpt lat="40.7351058239389" lon="-3.89737710636186">
        <time>2024-03-12T04:14:10Z</time>
      </trkpt>
      <trkpt lat="40.7351472196027" lon="-3.89740182040012">
        <time>2024-03-12T04:14:10Z</time>
      </trkpt>
      <trkpt lat="40.7352299713702" lon="-3.89745633389439">
        <time>2024-03-12T04:14:10Z</time>
      </trkpt>
      <trkpt lat="40.7353115484387" lon="-3.89753753251527">
        <time>2024-03-12T04:14:10Z</time>
      </trkpt>
      <trkpt lat="40.735373853509" lon="-3.89760957203056">
        <time>2024-03-12T04:14:10Z</time>
      </trkpt>
      <trkpt lat="40.7354568128136" lon="-3.89763738792666">
        <time>2024-03-12T04:14:10Z</time>
      </trkpt>
      <trkpt lat="40.7355598996893" lon="-3.89770774166136">
        <time>2024-03-12T04:14:10Z</time>
      </trkpt>
      <trkpt lat="40.735617648899" lon="-3.89772473839541">
        <time>2024-03-12T04:14:10Z</time>
      </trkpt>
      <trkpt lat="40.7356511300191" lon="-3.89777223294341">
        <time>2024-03-12T04:14:10Z</time>
      </trkpt>
      <trkpt lat="40.7356797956114" lon="-3.89781711985259">
        <time>2024-03-12T04:14:10Z</time>
      </trkpt>
      <trkpt lat="40.735732578278" lon="-3.8978699598955">
        <time>2024-03-12T04:14:10Z</time>
      </trkpt>
      <trkpt lat="40.7357730067688" lon="-3.89789466147383">
        <time>2024-03-12T04:14:10Z</time>
      </trkpt>
      <trkpt lat="40.7358172441379" lon="-3.89792704314735">
        <time>2024-03-12T04:14:10Z</time>
      </trkpt>
      <trkpt lat="40.7358842655352" lon="-3.89801440471772">
        <time>2024-03-12T04:14:10Z</time>
      </trkpt>
      <trkpt lat="40.7359225719248" lon="-3.89806323597026">
        <time>2024-03-12T04:14:10Z</time>
      </trkpt>
      <trkpt lat="40.7359623968912" lon="-3.89816548977567">
        <time>2024-03-12T04:14:10Z</time>
      </trkpt>
      <trkpt lat="40.7360055286068" lon="-3.89821565755382">
        <time>2024-03-12T04:14:10Z</time>
      </trkpt>
      <trkpt lat="40.7360577101188" lon="-3.89822144533648">
        <time>2024-03-12T04:14:10Z</time>
      </trkpt>
      <trkpt lat="40.7360859857311" lon="-3.89819528655448">
        <time>2024-03-12T04:14:10Z</time>
      </trkpt>
      <trkpt lat="40.736120427738" lon="-3.89814517992394">
        <time>2024-03-12T04:14:10Z</time>
      </trkpt>
      <trkpt lat="40.7361977198084" lon="-3.89805265914893">
        <time>2024-03-12T04:14:10Z</time>
      </trkpt>
      <trkpt lat="40.7362197617491" lon="-3.89799847739726">
        <time>2024-03-12T04:14:10Z</time>
      </trkpt>
      <trkpt lat="40.7362120349814" lon="-3.89794448736118">
        <time>2024-03-12T04:14:10Z</time>
      </trkpt>
      <trkpt lat="40.736269218099" lon="-3.8977627416286">
        <time>2024-03-12T04:14:10Z</time>
      </trkpt>
      <trkpt lat="40.7362864986013" lon="-3.89765489779212">
        <time>2024-03-12T04:14:10Z</time>
      </trkpt>
      <trkpt lat="40.7363118911501" lon="-3.89749884651389">
        <time>2024-03-12T04:14:10Z</time>
      </trkpt>
      <trkpt lat="40.736338210356" lon="-3.89747897371102">
        <time>2024-03-12T04:14:10Z</time>
      </trkpt>
      <trkpt lat="40.7363463355627" lon="-3.89747671428927">
        <time>2024-03-12T04:14:10Z</time>
      </trkpt>
      <trkpt lat="40.7363690266226" lon="-3.89748944251974">
        <time>2024-03-12T04:14:10Z</time>
      </trkpt>
      <trkpt lat="40.7363910020093" lon="-3.89752406798828">
        <time>2024-03-12T04:14:10Z</time>
      </trkpt>
      <trkpt lat="40.7364252129659" lon="-3.89760208848576">
        <time>2024-03-12T04:14:10Z</time>
      </trkpt>
      <trkpt lat="40.736453789624" lon="-3.89765841803916">
        <time>2024-03-12T04:14:10Z</time>
      </trkpt>
      <trkpt lat="40.7364869642079" lon="-3.89774532516222">
        <time>2024-03-12T04:14:10Z</time>
      </trkpt>
      <trkpt lat="40.7365093725251" lon="-3.897848616969">
        <time>2024-03-12T04:14:10Z</time>
      </trkpt>
      <trkpt lat="40.7365342193013" lon="-3.8978870957032">
        <time>2024-03-12T04:14:10Z</time>
      </trkpt>
      <trkpt lat="40.7365651948033" lon="-3.8978836977238">
        <time>2024-03-12T04:14:10Z</time>
      </trkpt>
      <trkpt lat="40.7365975626417" lon="-3.89782564439025">
        <time>2024-03-12T04:14:10Z</time>
      </trkpt>
      <trkpt lat="40.7366154740394" lon="-3.89776103919632">
        <time>2024-03-12T04:14:10Z</time>
      </trkpt>
      <trkpt lat="40.7366532703927" lon="-3.89762676926822">
        <time>2024-03-12T04:14:10Z</time>
      </trkpt>
      <trkpt lat="40.7366763728904" lon="-3.89751646004361">
        <time>2024-03-12T04:14:10Z</time>
      </trkpt>
      <trkpt lat="40.7367962104089" lon="-3.89754470504074">
        <time>2024-03-12T04:14:10Z</time>
      </trkpt>
      <trkpt lat="40.7370189788911" lon="-3.89753608694996">
        <time>2024-03-12T04:14:10Z</time>
      </trkpt>
      <trkpt lat="40.7371862324832" lon="-3.89749191652213">
        <time>2024-03-12T04:14:10Z</time>
      </trkpt>
      <trkpt lat="40.7373308243897" lon="-3.89747275987866">
        <time>2024-03-12T04:14:10Z</time>
      </trkpt>
      <trkpt lat="40.737449640952" lon="-3.8974659172326">
        <time>2024-03-12T04:14:10Z</time>
      </trkpt>
      <trkpt lat="40.7375392112056" lon="-3.8975051001917">
        <time>2024-03-12T04:14:10Z</time>
      </trkpt>
      <trkpt lat="40.7376224282926" lon="-3.89753575830729">
        <time>2024-03-12T04:14:10Z</time>
      </trkpt>
      <trkpt lat="40.7376990288129" lon="-3.89759164626491">
        <time>2024-03-12T04:14:10Z</time>
      </trkpt>
      <trkpt lat="40.7377372150954" lon="-3.89763435978698">
        <time>2024-03-12T04:14:10Z</time>
      </trkpt>
      <trkpt lat="40.7378239040775" lon="-3.89763130413302">
        <time>2024-03-12T04:14:10Z</time>
      </trkpt>
      <trkpt lat="40.7379174056073" lon="-3.8975777024849">
        <time>2024-03-12T04:14:10Z</time>
      </trkpt>
      <trkpt lat="40.7380044555261" lon="-3.89752823377547">
        <time>2024-03-12T04:14:10Z</time>
      </trkpt>
      <trkpt lat="40.7380815819649" lon="-3.89751660983198">
        <time>2024-03-12T04:14:10Z</time>
      </trkpt>
      <trkpt lat="40.7381176079595" lon="-3.89742425586978">
        <time>2024-03-12T04:14:10Z</time>
      </trkpt>
      <trkpt lat="40.7381629348877" lon="-3.8973742249231">
        <time>2024-03-12T04:14:10Z</time>
      </trkpt>
      <trkpt lat="40.7382369822366" lon="-3.8973456813131">
        <time>2024-03-12T04:14:10Z</time>
      </trkpt>
      <trkpt lat="40.7382918388724" lon="-3.89730843892948">
        <time>2024-03-12T04:14:10Z</time>
      </trkpt>
      <trkpt lat="40.7383496752607" lon="-3.89730077529738">
        <time>2024-03-12T04:14:10Z</time>
      </trkpt>
      <trkpt lat="40.738401060061" lon="-3.89729724597035">
        <time>2024-03-12T04:14:10Z</time>
      </trkpt>
      <trkpt lat="40.7384436039688" lon="-3.89719231835177">
        <time>2024-03-12T04:14:10Z</time>
      </trkpt>
      <trkpt lat="40.7384958497782" lon="-3.89711012917828">
        <time>2024-03-12T04:14:10Z</time>
      </trkpt>
      <trkpt lat="40.7385047745884" lon="-3.89707035764328">
        <time>2024-03-12T04:14:10Z</time>
      </trkpt>
      <trkpt lat="40.7385807762503" lon="-3.89704080517571">
        <time>2024-03-12T04:14:10Z</time>
      </trkpt>
      <trkpt lat="40.7386213026582" lon="-3.89696188903449">
        <time>2024-03-12T04:14:10Z</time>
      </trkpt>
      <trkpt lat="40.738703183378" lon="-3.8968328886502">
        <time>2024-03-12T04:14:10Z</time>
      </trkpt>
      <trkpt lat="40.7387657575214" lon="-3.89685283031948">
        <time>2024-03-12T04:14:10Z</time>
      </trkpt>
      <trkpt lat="40.7388014410961" lon="-3.89685950141457">
        <time>2024-03-12T04:14:10Z</time>
      </trkpt>
      <trkpt lat="40.738822516687" lon="-3.89688323470595">
        <time>2024-03-12T04:14:10Z</time>
      </trkpt>
      <trkpt lat="40.7388673471083" lon="-3.89693369821074">
        <time>2024-03-12T04:14:10Z</time>
      </trkpt>
      <trkpt lat="40.7388728848482" lon="-3.89693981280852">
        <time>2024-03-12T04:14:10Z</time>
      </trkpt>
      <trkpt lat="40.7388998154417" lon="-3.8969520181155">
        <time>2024-03-12T04:14:10Z</time>
      </trkpt>
      <trkpt lat="40.7389682451501" lon="-3.89695649039462">
        <time>2024-03-12T04:14:10Z</time>
      </trkpt>
      <trkpt lat="40.7391874229164" lon="-3.89692153507127">
        <time>2024-03-12T04:14:10Z</time>
      </trkpt>
      <trkpt lat="40.7392733209256" lon="-3.89691546429208">
        <time>2024-03-12T04:14:10Z</time>
      </trkpt>
      <trkpt lat="40.7394938817882" lon="-3.89689959556707">
        <time>2024-03-12T04:14:10Z</time>
      </trkpt>
      <trkpt lat="40.739698785494" lon="-3.89684668253669">
        <time>2024-03-12T04:14:10Z</time>
      </trkpt>
      <trkpt lat="40.7398099652354" lon="-3.89684474119135">
        <time>2024-03-12T04:14:10Z</time>
      </trkpt>
      <trkpt lat="40.7399240292281" lon="-3.89684260170859">
        <time>2024-03-12T04:14:10Z</time>
      </trkpt>
      <trkpt lat="40.7401232523121" lon="-3.89682514321249">
        <time>2024-03-12T04:14:10Z</time>
      </trkpt>
      <trkpt lat="40.7401772331379" lon="-3.89683415890788">
        <time>2024-03-12T04:14:10Z</time>
      </trkpt>
      <trkpt lat="40.7401933960972" lon="-3.89684089008669">
        <time>2024-03-12T04:14:10Z</time>
      </trkpt>
      <trkpt lat="40.740299358376" lon="-3.89688435886511">
        <time>2024-03-12T04:14:10Z</time>
      </trkpt>
      <trkpt lat="40.7403565033007" lon="-3.89687275165645">
        <time>2024-03-12T04:14:10Z</time>
      </trkpt>
      <trkpt lat="40.7403807115191" lon="-3.89684873580302">
        <time>2024-03-12T04:14:10Z</time>
      </trkpt>
      <trkpt lat="40.7404081933449" lon="-3.89682471884806">
        <time>2024-03-12T04:14:10Z</time>
      </trkpt>
      <trkpt lat="40.7404049880867" lon="-3.89679693881629">
        <time>2024-03-12T04:14:10Z</time>
      </trkpt>
      <trkpt lat="40.7403806665477" lon="-3.89673858767414">
        <time>2024-03-12T04:14:10Z</time>
      </trkpt>
      <trkpt lat="40.7402855265085" lon="-3.89664717857024">
        <time>2024-03-12T04:14:10Z</time>
      </trkpt>
      <trkpt lat="40.7402091386368" lon="-3.89655388964251">
        <time>2024-03-12T04:14:10Z</time>
      </trkpt>
      <trkpt lat="40.7401867900491" lon="-3.89652007164331">
        <time>2024-03-12T04:14:10Z</time>
      </trkpt>
      <trkpt lat="40.7401334576297" lon="-3.89643917318507">
        <time>2024-03-12T04:14:10Z</time>
      </trkpt>
      <trkpt lat="40.7401309301325" lon="-3.89641663607756">
        <time>2024-03-12T04:14:10Z</time>
      </trkpt>
      <trkpt lat="40.7401357282345" lon="-3.89637880040899">
        <time>2024-03-12T04:14:10Z</time>
      </trkpt>
      <trkpt lat="40.7401547912327" lon="-3.89636010627924">
        <time>2024-03-12T04:14:10Z</time>
      </trkpt>
      <trkpt lat="40.74023410646" lon="-3.89633168000864">
        <time>2024-03-12T04:14:10Z</time>
      </trkpt>
      <trkpt lat="40.7402342875305" lon="-3.89633156400143">
        <time>2024-03-12T04:14:10Z</time>
      </trkpt>
      <trkpt lat="40.7404048795471" lon="-3.89628884754023">
        <time>2024-03-12T04:14:10Z</time>
      </trkpt>
      <trkpt lat="40.7406934605808" lon="-3.89636496901838">
        <time>2024-03-12T04:14:10Z</time>
      </trkpt>
      <trkpt lat="40.7407001950817" lon="-3.8963677835202">
        <time>2024-03-12T04:14:10Z</time>
      </trkpt>
      <trkpt lat="40.7407204004233" lon="-3.8963759901762">
        <time>2024-03-12T04:14:10Z</time>
      </trkpt>
      <trkpt lat="40.7407572209654" lon="-3.89639069716032">
        <time>2024-03-12T04:14:10Z</time>
      </trkpt>
      <trkpt lat="40.740789822869" lon="-3.89636863145613">
        <time>2024-03-12T04:14:10Z</time>
      </trkpt>
      <trkpt lat="40.7408732342746" lon="-3.89641594249749">
        <time>2024-03-12T04:14:10Z</time>
      </trkpt>
      <trkpt lat="40.7409011208563" lon="-3.89642105446153">
        <time>2024-03-12T04:14:10Z</time>
      </trkpt>
      <trkpt lat="40.7409513147235" lon="-3.89645370694569">
        <time>2024-03-12T04:14:10Z</time>
      </trkpt>
      <trkpt lat="40.7410067015259" lon="-3.89651367024605">
        <time>2024-03-12T04:14:10Z</time>
      </trkpt>
      <trkpt lat="40.7411026352579" lon="-3.89664180175218">
        <time>2024-03-12T04:14:10Z</time>
      </trkpt>
      <trkpt lat="40.7411149250721" lon="-3.8967165156018">
        <time>2024-03-12T04:14:10Z</time>
      </trkpt>
      <trkpt lat="40.7411554383981" lon="-3.89678602811293">
        <time>2024-03-12T04:14:10Z</time>
      </trkpt>
      <trkpt lat="40.7412030611423" lon="-3.89682115198109">
        <time>2024-03-12T04:14:10Z</time>
      </trkpt>
      <trkpt lat="40.7413112685951" lon="-3.89685904730771">
        <time>2024-03-12T04:14:10Z</time>
      </trkpt>
      <trkpt lat="40.7414115685662" lon="-3.89692772466866">
        <time>2024-03-12T04:14:10Z</time>
      </trkpt>
      <trkpt lat="40.741465558573" lon="-3.89693555636215">
        <time>2024-03-12T04:14:10Z</time>
      </trkpt>
      <trkpt lat="40.741522462522" lon="-3.89691618596346">
        <time>2024-03-12T04:14:10Z</time>
      </trkpt>
      <trkpt lat="40.7416386396232" lon="-3.89671166029224">
        <time>2024-03-12T04:14:10Z</time>
      </trkpt>
      <trkpt lat="40.7416786447008" lon="-3.89664113328217">
        <time>2024-03-12T04:14:10Z</time>
      </trkpt>
      <trkpt lat="40.7417144825144" lon="-3.89655041533146">
        <time>2024-03-12T04:14:10Z</time>
      </trkpt>
      <trkpt lat="40.7417298052887" lon="-3.8964333649006">
        <time>2024-03-12T04:14:10Z</time>
      </trkpt>
      <trkpt lat="40.7417578396694" lon="-3.89630345659405">
        <time>2024-03-12T04:14:10Z</time>
      </trkpt>
      <trkpt lat="40.7417783052889" lon="-3.89627814814793">
        <time>2024-03-12T04:14:10Z</time>
      </trkpt>
      <trkpt lat="40.7418033188164" lon="-3.8962472155816">
        <time>2024-03-12T04:14:10Z</time>
      </trkpt>
      <trkpt lat="40.741864662048" lon="-3.89623619495161">
        <time>2024-03-12T04:14:10Z</time>
      </trkpt>
      <trkpt lat="40.742158978649" lon="-3.8962697560932">
        <time>2024-03-12T04:14:10Z</time>
      </trkpt>
      <trkpt lat="40.7422662603254" lon="-3.89625935211214">
        <time>2024-03-12T04:14:10Z</time>
      </trkpt>
      <trkpt lat="40.7423558247908" lon="-3.89623354972703">
        <time>2024-03-12T04:14:10Z</time>
      </trkpt>
      <trkpt lat="40.7424233593568" lon="-3.89621408430113">
        <time>2024-03-12T04:14:10Z</time>
      </trkpt>
      <trkpt lat="40.7424637153448" lon="-3.89620552375978">
        <time>2024-03-12T04:14:10Z</time>
      </trkpt>
      <trkpt lat="40.7425124381869" lon="-3.8961215805983">
        <time>2024-03-12T04:14:10Z</time>
      </trkpt>
      <trkpt lat="40.7425264272075" lon="-3.89611302128348">
        <time>2024-03-12T04:14:10Z</time>
      </trkpt>
      <trkpt lat="40.7425666660885" lon="-3.89610849821043">
        <time>2024-03-12T04:14:10Z</time>
      </trkpt>
      <trkpt lat="40.7426058466912" lon="-3.89610711668492">
        <time>2024-03-12T04:14:10Z</time>
      </trkpt>
      <trkpt lat="40.7426711131425" lon="-3.89610926429635">
        <time>2024-03-12T04:14:10Z</time>
      </trkpt>
      <trkpt lat="40.7427654159723" lon="-3.89610862262336">
        <time>2024-03-12T04:14:10Z</time>
      </trkpt>
      <trkpt lat="40.7429298649569" lon="-3.89610447182378">
        <time>2024-03-12T04:14:10Z</time>
      </trkpt>
      <trkpt lat="40.7431446502393" lon="-3.89609463855648">
        <time>2024-03-12T04:14:10Z</time>
      </trkpt>
      <trkpt lat="40.7432713445197" lon="-3.89609506743987">
        <time>2024-03-12T04:14:10Z</time>
      </trkpt>
      <trkpt lat="40.7433758261138" lon="-3.89609138332927">
        <time>2024-03-12T04:14:10Z</time>
      </trkpt>
      <trkpt lat="40.7434464014953" lon="-3.89609487384179">
        <time>2024-03-12T04:14:10Z</time>
      </trkpt>
      <trkpt lat="40.7434907380096" lon="-3.89611454325687">
        <time>2024-03-12T04:14:10Z</time>
      </trkpt>
      <trkpt lat="40.7436097353199" lon="-3.8961097823844">
        <time>2024-03-12T04:14:10Z</time>
      </trkpt>
      <trkpt lat="40.7437379988391" lon="-3.8960326631836">
        <time>2024-03-12T04:14:10Z</time>
      </trkpt>
      <trkpt lat="40.7438029495668" lon="-3.89601318887579">
        <time>2024-03-12T04:14:10Z</time>
      </trkpt>
      <trkpt lat="40.7439112105335" lon="-3.89602100001142">
        <time>2024-03-12T04:14:10Z</time>
      </trkpt>
      <trkpt lat="40.7440408750685" lon="-3.896012567228">
        <time>2024-03-12T04:14:10Z</time>
      </trkpt>
      <trkpt lat="40.74429432282" lon="-3.89600579573694">
        <time>2024-03-12T04:14:10Z</time>
      </trkpt>
      <trkpt lat="40.7444191619356" lon="-3.89599602648722">
        <time>2024-03-12T04:14:10Z</time>
      </trkpt>
      <trkpt lat="40.7444951941393" lon="-3.89604409763137">
        <time>2024-03-12T04:14:10Z</time>
      </trkpt>
      <trkpt lat="40.7445738214384" lon="-3.89613162462395">
        <time>2024-03-12T04:14:10Z</time>
      </trkpt>
      <trkpt lat="40.7446533169853" lon="-3.89623187991584">
        <time>2024-03-12T04:14:10Z</time>
      </trkpt>
      <trkpt lat="40.7447061298586" lon="-3.89628091141384">
        <time>2024-03-12T04:14:10Z</time>
      </trkpt>
      <trkpt lat="40.7447865140203" lon="-3.89626673086574">
        <time>2024-03-12T04:14:10Z</time>
      </trkpt>
      <trkpt lat="40.7448883708985" lon="-3.89622740560016">
        <time>2024-03-12T04:14:10Z</time>
      </trkpt>
      <trkpt lat="40.7450407220282" lon="-3.89616205339858">
        <time>2024-03-12T04:14:10Z</time>
      </trkpt>
      <trkpt lat="40.7452076579436" lon="-3.89608672344389">
        <time>2024-03-12T04:14:10Z</time>
      </trkpt>
      <trkpt lat="40.7453707946854" lon="-3.89600244052701">
        <time>2024-03-12T04:14:10Z</time>
      </trkpt>
      <trkpt lat="40.745535964184" lon="-3.89590546788165">
        <time>2024-03-12T04:14:10Z</time>
      </trkpt>
      <trkpt lat="40.7456451134272" lon="-3.89579884139318">
        <time>2024-03-12T04:14:10Z</time>
      </trkpt>
      <trkpt lat="40.7457922935431" lon="-3.89565203153892">
        <time>2024-03-12T04:14:10Z</time>
      </trkpt>
      <trkpt lat="40.745887647231" lon="-3.8955782825096">
        <time>2024-03-12T04:14:10Z</time>
      </trkpt>
      <trkpt lat="40.7460915775542" lon="-3.89547165466425">
        <time>2024-03-12T04:14:10Z</time>
      </trkpt>
      <trkpt lat="40.7462741832177" lon="-3.89537109853175">
        <time>2024-03-12T04:14:10Z</time>
      </trkpt>
      <trkpt lat="40.7463934270714" lon="-3.89533454761316">
        <time>2024-03-12T04:14:10Z</time>
      </trkpt>
      <trkpt lat="40.746623694955" lon="-3.89532364753536">
        <time>2024-03-12T04:14:10Z</time>
      </trkpt>
      <trkpt lat="40.7467882424679" lon="-3.89530677921393">
        <time>2024-03-12T04:14:10Z</time>
      </trkpt>
      <trkpt lat="40.7469640789916" lon="-3.89533075622764">
        <time>2024-03-12T04:14:10Z</time>
      </trkpt>
      <trkpt lat="40.7470595018748" lon="-3.89537273014436">
        <time>2024-03-12T04:14:10Z</time>
      </trkpt>
      <trkpt lat="40.7471340344767" lon="-3.89548945372896">
        <time>2024-03-12T04:14:10Z</time>
      </trkpt>
      <trkpt lat="40.7472442986908" lon="-3.89561301543908">
        <time>2024-03-12T04:14:10Z</time>
      </trkpt>
      <trkpt lat="40.7473130583425" lon="-3.89560122103011">
        <time>2024-03-12T04:14:10Z</time>
      </trkpt>
      <trkpt lat="40.7474033991078" lon="-3.89555029356443">
        <time>2024-03-12T04:14:10Z</time>
      </trkpt>
      <trkpt lat="40.7475700090078" lon="-3.89551692121899">
        <time>2024-03-12T04:14:10Z</time>
      </trkpt>
      <trkpt lat="40.747802171503" lon="-3.89551113388407">
        <time>2024-03-12T04:14:10Z</time>
      </trkpt>
      <trkpt lat="40.7479295466119" lon="-3.89554845046044">
        <time>2024-03-12T04:14:10Z</time>
      </trkpt>
      <trkpt lat="40.7481597848665" lon="-3.8956659933223">
        <time>2024-03-12T04:14:10Z</time>
      </trkpt>
      <trkpt lat="40.7482821765988" lon="-3.89572231922771">
        <time>2024-03-12T04:14:10Z</time>
      </trkpt>
      <trkpt lat="40.7484162716646" lon="-3.89576608524711">
        <time>2024-03-12T04:14:10Z</time>
      </trkpt>
      <trkpt lat="40.7486875896202" lon="-3.8959490388419">
        <time>2024-03-12T04:14:10Z</time>
      </trkpt>
      <trkpt lat="40.7488343747712" lon="-3.89597771525982">
        <time>2024-03-12T04:14:10Z</time>
      </trkpt>
      <trkpt lat="40.7489862518642" lon="-3.89597339528137">
        <time>2024-03-12T04:14:10Z</time>
      </trkpt>
      <trkpt lat="40.7490201580422" lon="-3.89596622004345">
        <time>2024-03-12T04:14:10Z</time>
      </trkpt>
    </trkseg>
  </trk>
</gpx>
